Regional Weather Roundup
Issued by NWS Newport/Morehead, NC

Current Version | Previous Version | Graphics & Text | Print | Product List | Glossary Off
Versions: 1 2 3 4 5 6 7 8 9 10 11 12 13 14 15 16 17 18 19 20 21 22 23 24 25 26 27 28 29 30 31 32 33 34 35 36 37 38 39 40 41 42 43 44 45 46 47 48 49 50

000
ASUS42 KMHX 300922
RWRMHX
WEATHER ROUNDUP FOR EASTERN NORTH CAROLINA
NATIONAL WEATHER SERVICE NEWPORT/MOREHEAD CITY NC
500 AM EDT SAT AUG 30 2014

NOTE: "FAIR" INDICATES FEW OR NO CLOUDS BELOW 12,000 FEET
WITH NO SIGNIFICANT WEATHER AND/OR OBSTRUCTIONS TO VISIBILITY

NCZ015>017-031-032-045>047-102-103-301000-
NORTH COAST

CITY           SKY/WX    TMP DP  RH WIND       PRES   REMARKS
EDENTON        CLOUDY    72  69  88 NE3       30.19S
ELIZABETH CITY CLOUDY    74  67  78 NE7       30.20R
KITTY HAWK     MOSUNNY   74  68  80 E6        30.18R
MANTEO         MOCLDY    74  69  82 E6        30.19S

$$

NCZ045>047-081-094-103-104-301000-
CENTRAL COAST

CITY           SKY/WX    TMP DP  RH WIND       PRES   REMARKS
FRISCO         CLEAR     74  74 100 NE5       30.17S
SWANQUARTER      N/A     73 N/A N/A NE3       30.15S

$$

NCZ095-097-098-100-101-301000-
SOUTHERN COAST

CITY           SKY/WX    TMP DP  RH WIND       PRES   REMARKS
BEAUFORT       CLEAR     75  73  93 NE3       30.17R
CEDAR ISLAND     N/A     77 N/A N/A NE2       30.21S
JACKSONVILLE   PTCLDY    73  71  93 NE3       30.16S
NEWPORT        NOT AVBL
PINEY ISLAND   SUNNY     78  76  93 CALM      30.16S
WILMINGTON     PTCLDY    72  71  97 NE3       30.15S


$$

NCZ011>013-027>030-043-044-078>080-089-090>093-098-301000-
COASTAL PLAIN

CITY           SKY/WX    TMP DP  RH WIND       PRES   REMARKS
AHOSKIE        PTCLDY    69  65  86 CALM      30.20R
CLINTON        FOG       72  72 100 E3        30.17S VSB 3/4
ELIZABETHTOWN  CLEAR     71  71 100 CALM      30.16S
GOLDSBORO      CLEAR     70  70  98 NE2       30.17R
GREENVILLE     MOCLDY    70  68  94 CALM      30.20R
HAVELOCK       CLEAR     73  72  96 CALM      30.18S
KENANSVILLE    CLEAR     70  70 100 CALM      30.18S FOG
KINSTON        CLEAR     69  68  96 CALM      30.19S
NEW BERN       CLEAR     73  70  90 NE3       30.19R
RICHLANDS      PTCLDY    72  68  88 N3        30.17F
ROANOKE RAPIDS NOT AVBL
ROCKY MOUNT    CLOUDY    70  67  90 CALM      30.19S
WASHINGTON     MOCLDY    69  67  93 CALM      30.19S
WHITEVILLE     CLEAR     71  69  95 CALM      30.15S

$$

AMZ130-135-150-152-154-156-158-170-250-252-270-ANZ085-086-088-633-658-670-301000-
MARINE OBSERVATIONS

STATION/POSITION TIME  TEMP    WIND        PRES    WAVE   SWELL
                       AIR SEA DIR/SP/G            HT/PER HT/PER
                 (UTC) (F)     (DEG/KT/KT) (MB)    (FT/S) (FT/S)
CHESAPEAKE LIGHT 0900   75     110/ 10/ 11 1023.3
BUOY 44014       0900   76 76   80/ 12/ 14 1022.2    3/ 8   2/ 8
DUCK             0900   76 78   90/ 13/ 15 1021.6
2E DUCK          0900                        N/A     3/ 7
OREGON INLET     0900   75 79   60/  9/ 12 1022.0
BUOY 44095       0900      76                N/A     3/ 8
20E OREGON INLET NOT AVBL
HATTERAS CG      0900   78 82   70/  3/  5 1022.0
DIAMOND BUOY     0900   76     170/  8/ 10 1021.5    4/ 7   3/ 7
CAPE LOOKOUT     0900   80      50/  3/  4 1021.3
BEAUFORT LAB     0900   76 82   20/  3/  4 1021.0
30 SE NEW RIVER  0900   82 82  220/  6/  8 1021.6    3/ 7   3/ 7
5 SE WRIGHTSVILL 0900   78 81  160/  6/  8   N/A
BUOY 41002       0843   81 82  100/  8/ 10 1021.4    3/ 8   3/ 8
BUOY 41004       0900   82 83  350/  2/  2 1019.9    3/ 8   3/ 8

$$


USA.gov is the U.S. government's official web portal to all federal, state and local government web resources and services.